Showing default

COSMOS 2504, 40555

Orbit data source: Space-Track

COSMOS 2504, 40555 is a payload satellite owned by TsNIIKhM (CIS) in LEO that was launched on Tue, 31 Mar 2015 UTC via an ROKOT launch vehicle from the Plesetsk Missile And Space Complex (PKMTR). Payload-class satellites include a variety of spacecraft equipped with specific instruments for various scientific and technological missions. These include communications satellites like Starlink; space stations such as the ISS; scientific satellites like the Hubble; Earth observation satellites from companies like Planet Labs, Umbra, and HawkEye 360; GPS; miniature CubeSats for education and research; and military/defense satellites.

Loading next visibility...
Identifier
40555, 2015-020D
Orbit
LEO
Country
Flag of CISCIS
Related business
Manufacturer
TsNIIKhM
Mission
Operational Defense Technology
Bus & Motor
NIVELIR, Unknown motor
Mass
~100 kg wet, ~100 kg dry
Launch date (UTC)
2015-03-31 (11 years ago)
Launch vehicle
ROKOT
Launch site
Plesetsk Missile And Space Complex (PKMTR)
Object type
Payload
Rocket body
Debris
Shape & HBR
Hex Cyl + 1 Ant, 0.5 m
Radar Cross Section
0.352 m², Medium (>0.1 m² and < 1m²)

Expand to show TLE details & history
Last TLE update: 15 hours ago

TLE from 15 hours ago
0 COSMOS 2504
1 40555U 15020D   26202.58377247  .00000050  00000-0  11180-4 0  9992
2 40555  82.5152 204.7074 0607615 180.6761 179.3641 13.61396011554873
Epoch: 2026-07-21T14:00Z
TLE epoch observation values (Epoch: 2026-07-21T14:00:37.941Z)
Latitude
-0.00003°
Longitude
55.19793°
Altitude
1,483.735 km
Speed
6.902 km/s
True Right ascension
13h 38m 49s
True Declination
0° 00' 00"
Sunlit
Object was in daylight at epoch
Visualization orbit readout
Latitude
Unknown
Longitude
Unknown
Altitude
Unknown
Speed
Unknown
Apparent Right ascension
Unknown
Apparent Declination
Unknown
Sunlit
N/A
Visualization observer readout
Local Sidereal Time
17:44:43
Azimuth
Unknown
Elevation
Unknown
Doppler factor
Unknown
Orbital elements
Apogee altitude
1,477.787 km
Perigee altitude
577.796 km
Semi-major axis
7,405.929 km
Eccentricity
0.06076
Inclination
82.5152°
RAAN
204.7074°
Arg. of periapsis
180.6761°
True anomaly
179.43591°
Mean anomaly
179.3641°
Eccentric anomaly
179.40052°
Mean motion
3.40545 °/min
Orbital period
105.71 mins
BSTAR
0.00001118
Loading maneuver chart data...
Computing Atmospheric mass density...
Loading historical data...
Loading historical data...
Loading historical data...
Loading historical data...
Loading historical data...
Loading historical data...
Loading historical data...

Documentation

Showing up to 5 results
|